Home   Weather   Peterborough   Past weeks

Flag for Canada Past Weather in Peterborough, Ontario, Canada — Yesterday and Last 2 Weeks

Now
55 °F

Mostly cloudy.


Feels Like: 53 °F
Forecast: 54 / 63 °F
Wind: 8 mph from Northeast

Location: Peterborough Airport

Current Time: May 25, 2017 at 9:59:16 pm

Latest Report: May 25, 2017 at 9:00 pm


Visibility: 7 mi

Pressure: 29.56 "Hg

Humidity: 94%

Dew Point: 54 °F

Location of PeterboroughLocation

Past Weather in Peterborough — Graph

°F

Peterborough Temperature Yesterday

Maximum temperature yesterday: 75 °F (at 5:00 pm)
Minimum temperature yesterday: 52 °F (at 3:38 am)
Average temperature yesterday: 62 °F

High & Low Weather Summary for the Past Weeks

 TemperatureHumidityPressure
High84 °F (May 17, 3:00 pm)100% (May 12, 5:00 am)30.39 "Hg (May 12, 5:00 am)
Low37 °F (May 11, 2:00 am)30% (May 20, 5:00 pm)29.53 "Hg (May 25, 7:09 pm)
Average56 °F75%29.90 "Hg
* Reported May 10 8:00 pm — May 25 8:00 pm, Peterborough. Weather by CustomWeather, © 2017

Note: Actual official high and low records may vary slightly from our data, if they occured in-between our weather recording intervals... More about our weather records

Advertising

Peterborough Weather History for the Previous 24 Hours

Scroll right to see more
 ConditionsComfort  
Time TempWeatherWind HumidityBarometerVisibility
8:00 pm
Thu, May 25
55 °FMostly cloudy.7 mph94%29.54 "Hg9 mi
7:09 pm55 °FOvercast.10 mph94%29.53 "Hg9 mi
6:21 pm55 °FLight rain. Fog.9 mph94%29.54 "Hg6 mi
6:00 pm55 °FLight rain. Overcast.10 mph94%29.54 "Hg7 mi
5:33 pm55 °FLight rain. Fog.15 mph94%29.54 "Hg6 mi
5:05 pm55 °FLight rain. Fog.9 mph94%29.55 "Hg4 mi
4:55 pm55 °FLight rain. Fog.8 mph94%29.55 "Hg4 mi
4:32 pm55 °FLight rain. Fog.10 mph94%29.55 "Hg4 mi
4:22 pm55 °FLight rain. Fog.8 mph94%29.56 "Hg4 mi
4:08 pm55 °FLight rain. Fog.8 mph94%29.56 "Hg5 mi
3:51 pm55 °FLight rain. Fog.9 mph94%29.56 "Hg5 mi
3:04 pm55 °FLight rain. Fog.14 mph94%29.57 "Hg6 mi
2:24 pm55 °FLight rain. Fog.12 mph94%29.58 "Hg6 mi
2:00 pm55 °FLight rain. Fog.12 mph88%29.60 "Hg5 mi
1:00 pm54 °FRain. Fog.9 mph94%29.61 "Hg4 mi
12:27 pm54 °FRain. Fog.13 mph94%29.61 "Hg5 mi
12:23 pm54 °FRain. Fog.12 mph94%29.61 "Hg6 mi
12:00 pm55 °FLight rain. Mostly cloudy.10 mph88%29.62 "Hg9 mi
11:00 am55 °FLight rain. Mostly cloudy.12 mph88%29.63 "Hg8 mi
10:26 am55 °FLight rain. Cloudy.8 mph94%29.64 "Hg9 mi
10:00 am55 °FLight rain. Overcast.10 mph94%29.64 "Hg9 mi
9:00 am55 °FLight rain. Cloudy.8 mph94%29.65 "Hg7 mi
8:00 am55 °FLight rain. Overcast.7 mph94%29.65 "Hg9 mi
7:00 am55 °FLight rain. Overcast.9 mph94%29.67 "Hg9 mi
6:00 am57 °FLight rain. Cloudy.6 mph88%29.69 "Hg9 mi
5:00 am57 °FLight rain. Overcast.3 mph88%29.68 "Hg9 mi
4:00 am59 °FLight rain. Overcast.10 mph77%29.67 "Hg9 mi
3:28 am63 °FLight rain. Mostly cloudy.14 mph64%29.65 "Hg9 mi
3:00 am64 °FMostly cloudy.8 mph60%29.65 "Hg9 mi
2:23 am64 °FLight rain. Mostly cloudy.7 mph64%29.66 "Hg9 mi
2:07 am64 °FLight rain. Mostly cloudy.7 mph64%29.66 "Hg9 mi
1:00 am66 °FMostly cloudy.9 mph56%29.67 "Hg9 mi
12:00 am66 °FMostly cloudy.10 mph56%29.67 "Hg9 mi
11:00 pm
Wed, May 24
66 °FPassing clouds.7 mph60%29.67 "Hg9 mi
10:00 pm66 °FOvercast.6 mph60%29.68 "Hg9 mi
9:00 pm68 °FMostly cloudy.5 mph56%29.68 "Hg9 mi
Weather by CustomWeather, © 2017

See weather overviewHow to use our weather pages